Terug naar catalogus

DELTA 4 R/B

ActiefMEO
NORAD 32288·ROCKET BODY·🇺🇸 United States

Gelanceerd Nov 11, 2007 vanaf Cape Canaveral Space Force Station

Loading…

Volgende Passages (komende 24 uur)

TLE

VersSource: Space-Track

Epoch: Sep 13, 2026, 07:36 UTC

1 32288U 07054B   26256.31668859 -.00000197  00000-0  00000+0 0  9993
2 32288  11.7118  50.7253 0245318 143.4596 218.3350  0.95871030 26082

Volg DELTA 4 R/B in realtime met AllMySat

Download on the App Store